• In Lithuania
  • List of Countries
  • For 7 days
  • Water Temperature
  • Satellite Maps
  • Weather Map
  • Weather Widgets
  • user-avatar
    Login

    Hourly Weather La Paz

    Today, 18 December, Monday

    Time Temperature Precipitation Wind Pressure Humidity
    00:00 +21°C° 0 mm 2 mps 700 mmHg 94%
    01:00 +21°C° 0 mm 2 mps 699 mmHg 94%
    02:00 +21°C° 0 mm 2 mps 699 mmHg 94%
    03:00 +21°C° 0 mm 2 mps 699 mmHg 94%
    04:00 +21°C° 0 mm 2 mps 699 mmHg 94%
    05:00 +21°C° 0 mm 2 mps 699 mmHg 94%
    06:00 +21°C° 0 mm 2 mps 699 mmHg 94%
    07:00 +21°C° 0.1 mm 2 mps 700 mmHg 90%
    08:00 +23°C° 0.1 mm 2 mps 700 mmHg 86%
    09:00 +24°C° 0.1 mm 2 mps 701 mmHg 82%
    10:00 +25°C° 0.1 mm 2 mps 701 mmHg 78%
    11:00 +26°C° 0.1 mm 3 mps 701 mmHg 75%
    12:00 +27°C° 0.1 mm 3 mps 701 mmHg 71%
    13:00 +27°C° 0.1 mm 3 mps 700 mmHg 69%
    14:00 +28°C° 0.1 mm 3 mps 699 mmHg 66%
    15:00 +28°C° 0.1 mm 3 mps 699 mmHg 64%
    16:00 +27°C° 0.1 mm 2 mps 699 mmHg 72%
    17:00 +25°C° 0.1 mm 2 mps 699 mmHg 81%
    18:00 +23°C° 0.1 mm 2 mps 699 mmHg 89%
    19:00 +23°C° 0.1 mm 2 mps 699 mmHg 91%
    20:00 +21°C° 0.1 mm 2 mps 700 mmHg 93%
    21:00 +21°C° 0.1 mm 2 mps 700 mmHg 95%
    22:00 +21°C° 0.1 mm 2 mps 700 mmHg 96%
    23:00 +21°C° 0.1 mm 2 mps 700 mmHg 96%

    Tomorrow, 19 December, Tuesday

    Time Temperature Precipitation Wind Pressure Humidity
    00:00 +21°C° 0.1 mm 2 mps 700 mmHg 96%
    01:00 +21°C° 0.1 mm 2 mps 700 mmHg 96%
    02:00 +21°C° 0.1 mm 2 mps 700 mmHg 95%
    03:00 +21°C° 0.1 mm 2 mps 700 mmHg 95%
    04:00 +20°C° 0 mm 2 mps 700 mmHg 95%
    05:00 +20°C° 0 mm 2 mps 700 mmHg 95%
    06:00 +20°C° 0 mm 2 mps 700 mmHg 95%
    07:00 +21°C° 0 mm 2 mps 700 mmHg 90%
    08:00 +23°C° 0 mm 2 mps 701 mmHg 86%
    09:00 +24°C° 0 mm 2 mps 702 mmHg 81%
    10:00 +25°C° 0.1 mm 2 mps 701 mmHg 78%
    11:00 +26°C° 0.1 mm 3 mps 701 mmHg 75%
    12:00 +27°C° 0.1 mm 3 mps 701 mmHg 72%
    13:00 +27°C° 0.1 mm 3 mps 700 mmHg 72%
    14:00 +27°C° 0.1 mm 2 mps 699 mmHg 71%
    15:00 +27°C° 0.1 mm 2 mps 699 mmHg 71%
    16:00 +26°C° 0.1 mm 2 mps 699 mmHg 77%
    17:00 +24°C° 0.1 mm 2 mps 699 mmHg 83%
    18:00 +23°C° 0.1 mm 2 mps 699 mmHg 90%
    19:00 +23°C° 0.1 mm 2 mps 699 mmHg 91%
    20:00 +21°C° 0.1 mm 2 mps 700 mmHg 93%
    21:00 +21°C° 0.1 mm 2 mps 700 mmHg 95%
    22:00 +21°C° 0.1 mm 2 mps 700 mmHg 95%
    23:00 +21°C° 0.1 mm 2 mps 700 mmHg 96%

    Day after tomorrow, 20 December, Wednesday

    Time Temperature Precipitation Wind Pressure Humidity
    00:00 +21°C° 0.1 mm 2 mps 700 mmHg 96%
    01:00 +21°C° 0.1 mm 2 mps 700 mmHg 96%
    02:00 +21°C° 0.1 mm 2 mps 699 mmHg 96%
    03:00 +20°C° 0.1 mm 2 mps 699 mmHg 96%
    04:00 +20°C° 0 mm 2 mps 699 mmHg 96%
    05:00 +21°C° 0 mm 1 mps 699 mmHg 96%
    06:00 +21°C° 0 mm 1 mps 699 mmHg 96%
    07:00 +21°C° 0 mm 2 mps 700 mmHg 89%
    08:00 +24°C° 0 mm 2 mps 701 mmHg 82%
    09:00 +25°C° 0 mm 2 mps 701 mmHg 75%
    10:00 +26°C° 0 mm 2 mps 701 mmHg 70%
    11:00 +28°C° 0 mm 2 mps 701 mmHg 64%
    12:00 +29°C° 0 mm 2 mps 700 mmHg 59%
    13:00 +29°C° 0 mm 2 mps 700 mmHg 59%
    14:00 +29°C° 0 mm 2 mps 699 mmHg 60%
    15:00 +29°C° 0 mm 2 mps 698 mmHg 60%
    16:00 +27°C° 0 mm 2 mps 698 mmHg 69%
    17:00 +25°C° 0 mm 2 mps 698 mmHg 77%
    18:00 +23°C° 0 mm 2 mps 698 mmHg 85%
    19:00 +23°C° 0 mm 2 mps 698 mmHg 88%
    20:00 +21°C° 0 mm 2 mps 699 mmHg 90%
    21:00 +21°C° 0 mm 2 mps 699 mmHg 92%
    22:00 +21°C° 0 mm 2 mps 699 mmHg 93%
    23:00 +21°C° 0 mm 2 mps 699 mmHg 94%

    21 December, Thursday

    Time Temperature Precipitation Wind Pressure Humidity
    00:00 +22°C° 0 mm 1 mps 699 mmHg 95%
    01:00 +22°C° 0 mm 1 mps 698 mmHg 95%
    02:00 +22°C° 0 mm 1 mps 698 mmHg 96%
    03:00 +21°C° 0 mm 1 mps 698 mmHg 96%
    04:00 +21°C° 0 mm 1 mps 698 mmHg 96%
    05:00 +21°C° 0 mm 1 mps 698 mmHg 96%
    06:00 +21°C° 0 mm 1 mps 699 mmHg 96%
    07:00 +23°C° 0 mm 2 mps 699 mmHg 89%
    08:00 +24°C° 0 mm 2 mps 700 mmHg 81%
    09:00 +26°C° 0 mm 2 mps 701 mmHg 73%
    10:00 +27°C° 0 mm 2 mps 700 mmHg 67%
    11:00 +28°C° 0 mm 2 mps 700 mmHg 61%
    12:00 +30°C° 0 mm 2 mps 699 mmHg 55%
    13:00 +30°C° 0 mm 2 mps 699 mmHg 56%
    14:00 +29°C° 0 mm 2 mps 698 mmHg 56%
    15:00 +29°C° 0 mm 2 mps 698 mmHg 56%
    16:00 +28°C° 0 mm 2 mps 698 mmHg 64%
    17:00 +26°C° 0 mm 1 mps 698 mmHg 73%
    18:00 +24°C° 0 mm 1 mps 698 mmHg 81%
    19:00 +23°C° 0 mm 1 mps 698 mmHg 84%
    20:00 +22°C° 0 mm 1 mps 699 mmHg 88%
    21:00 +22°C° 0 mm 1 mps 699 mmHg 91%
    22:00 +22°C° 0 mm 1 mps 699 mmHg 92%
    23:00 +21°C° 0 mm 1 mps 699 mmHg 93%

    22 December, Friday

    Time Temperature Precipitation Wind Pressure Humidity
    00:00 +21°C° 0 mm 1 mps 699 mmHg 94%
    01:00 +21°C° 0 mm 1 mps 698 mmHg 95%
    02:00 +21°C° 0 mm 1 mps 698 mmHg 95%
    03:00 +20°C° 0 mm 1 mps 698 mmHg 96%
    04:00 +20°C° 0 mm 1 mps 698 mmHg 96%
    05:00 +20°C° 0 mm 1 mps 698 mmHg 96%
    06:00 +20°C° 0 mm 1 mps 699 mmHg 97%
    07:00 +22°C° 0 mm 1 mps 699 mmHg 88%
    08:00 +24°C° 0 mm 2 mps 700 mmHg 78%
    09:00 +26°C° 0 mm 2 mps 701 mmHg 69%
    10:00 +27°C° 0 mm 2 mps 700 mmHg 63%
    11:00 +28°C° 0 mm 2 mps 700 mmHg 57%
    12:00 +30°C° 0 mm 2 mps 700 mmHg 51%
    13:00 +30°C° 0 mm 2 mps 699 mmHg 52%
    14:00 +29°C° 0 mm 2 mps 698 mmHg 54%
    15:00 +29°C° 0 mm 2 mps 698 mmHg 55%
    16:00 +28°C° 0.1 mm 2 mps 698 mmHg 63%
    17:00 +26°C° 0.1 mm 1 mps 698 mmHg 72%
    18:00 +24°C° 0.1 mm 1 mps 699 mmHg 80%
    19:00 +24°C° 0.1 mm 1 mps 699 mmHg 84%
    20:00 +23°C° 0.1 mm 1 mps 699 mmHg 88%
    21:00 +22°C° 0.1 mm 1 mps 700 mmHg 92%
    22:00 +22°C° 0 mm 1 mps 699 mmHg 93%
    23:00 +21°C° 0 mm 1 mps 699 mmHg 94%

    23 December, Saturday

    Time Temperature Precipitation Wind Pressure Humidity
    00:00 +21°C° 0 mm 1 mps 699 mmHg 95%
    01:00 +21°C° 0 mm 1 mps 699 mmHg 96%
    02:00 +21°C° 0 mm 1 mps 699 mmHg 96%
    03:00 +21°C° 0 mm 1 mps 698 mmHg 96%
    04:00 +20°C° 0 mm 1 mps 699 mmHg 97%
    05:00 +20°C° 0 mm 1 mps 699 mmHg 97%
    06:00 +20°C° 0 mm 1 mps 700 mmHg 97%
    07:00 +22°C° 0 mm 1 mps 700 mmHg 88%
    08:00 +24°C° 0 mm 2 mps 701 mmHg 80%
    09:00 +26°C° 0 mm 2 mps 702 mmHg 71%
    10:00 +27°C° 0 mm 2 mps 701 mmHg 65%
    11:00 +28°C° 0 mm 2 mps 701 mmHg 59%
    12:00 +30°C° 0 mm 3 mps 700 mmHg 54%
    13:00 +30°C° 0.1 mm 3 mps 699 mmHg 55%
    14:00 +29°C° 0.1 mm 3 mps 699 mmHg 56%
    15:00 +29°C° 0.1 mm 3 mps 698 mmHg 58%
    16:00 +27°C° 0.2 mm 2 mps 698 mmHg 67%
    17:00 +25°C° 0.2 mm 2 mps 698 mmHg 76%
    18:00 +24°C° 0.2 mm 2 mps 699 mmHg 85%
    19:00 +23°C° 0.1 mm 2 mps 699 mmHg 88%
    20:00 +23°C° 0.1 mm 2 mps 699 mmHg 90%
    21:00 +21°C° 0.1 mm 2 mps 700 mmHg 93%
    22:00 +21°C° 0.1 mm 2 mps 700 mmHg 94%
    23:00 +21°C° 0.1 mm 2 mps 700 mmHg 94%
    Show more